ZKCMK NZWN-NZAR

Flight info

Callsign ZKCMK
Flight time 0h 53m
Altitude 31000
Route PP H482 KAPTI Y273 PEPPE DCT PUKEK DCT KINGS
Aircraft C525/L-SDFGRWY/SB1

Departure

Time 2026-04-25 20:53
Airport Wellington International Airport (NZWN)

Arrival

Time 2026-04-25 21:47
Airport Ardmore Airport (NZAR)
Time Latitude Longitude Altitude Speed Heading
2026-04-25 20:33 -41.32463 174.80440 43 ft 0 kts 181°
2026-04-25 20:44 -41.32464 174.80440 42 ft 0 kts 181°
2026-04-25 20:44 -41.32474 174.80438 43 ft 4 kts 181°
2026-04-25 20:44 -41.32507 174.80447 43 ft 4 kts 123°
2026-04-25 20:45 -41.32511 174.80479 43 ft 4 kts 93°
2026-04-25 20:45 -41.32513 174.80537 43 ft 8 kts 92°
2026-04-25 20:45 -41.32551 174.80568 43 ft 6 kts 184°
2026-04-25 20:45 -41.32595 174.80565 43 ft 6 kts 183°
2026-04-25 20:46 -41.32635 174.80562 43 ft 4 kts 184°
2026-04-25 20:46 -41.32658 174.80560 43 ft 3 kts 180°
2026-04-25 20:46 -41.32670 174.80562 43 ft 0 kts 150°
2026-04-25 20:46 -41.32678 174.80580 43 ft 0 kts 94°
2026-04-25 20:47 -41.32680 174.80608 43 ft 6 kts 92°
2026-04-25 20:47 -41.32684 174.80693 43 ft 12 kts 91°
2026-04-25 20:47 -41.32690 174.80797 43 ft 10 kts 115°
2026-04-25 20:47 -41.32747 174.80814 43 ft 8 kts 181°
2026-04-25 20:48 -41.32800 174.80811 43 ft 7 kts 182°
2026-04-25 20:48 -41.32847 174.80808 43 ft 6 kts 182°
2026-04-25 20:48 -41.32888 174.80806 43 ft 5 kts 182°
2026-04-25 20:48 -41.32925 174.80803 43 ft 4 kts 182°
2026-04-25 20:49 -41.32958 174.80800 43 ft 5 kts 182°
2026-04-25 20:49 -41.33007 174.80797 43 ft 8 kts 182°
2026-04-25 20:49 -41.33076 174.80792 43 ft 9 kts 183°
2026-04-25 20:49 -41.33141 174.80788 43 ft 10 kts 182°
2026-04-25 20:50 -41.33212 174.80783 43 ft 10 kts 182°
2026-04-25 20:50 -41.33295 174.80778 43 ft 13 kts 182°
2026-04-25 20:50 -41.33387 174.80772 43 ft 12 kts 182°
2026-04-25 20:50 -41.33434 174.80771 43 ft 5 kts 181°
2026-04-25 20:51 -41.33478 174.80766 43 ft 3 kts 188°
2026-04-25 20:51 -41.33490 174.80760 43 ft 0 kts 214°
2026-04-25 20:51 -41.33491 174.80759 43 ft 1 kts 214°
2026-04-25 20:52 -41.33509 174.80730 43 ft 7 kts 242°
2026-04-25 20:52 -41.33526 174.80681 43 ft 10 kts 246°
2026-04-25 20:52 -41.33494 174.80633 43 ft 0 kts
2026-04-25 20:52 -41.33492 174.80633 43 ft 5 kts
2026-04-25 20:53 -41.33191 174.80658 43 ft 77 kts
2026-04-25 20:53 -41.32508 174.80708 207 ft 109 kts
2026-04-25 20:53 -41.31721 174.80762 707 ft 117 kts
2026-04-25 20:53 -41.30827 174.80794 1113 ft 146 kts
2026-04-25 20:54 -41.29784 174.80820 1801 ft 157 kts 359°
2026-04-25 20:54 -41.28657 174.80846 2522 ft 167 kts 359°
2026-04-25 20:54 -41.27491 174.80891 3275 ft 171 kts 358°
2026-04-25 20:54 -41.26329 174.81165 4005 ft 181 kts 18°
2026-04-25 20:55 -41.25299 174.82243 4625 ft 198 kts 44°
2026-04-25 20:55 -41.24518 174.83682 5486 ft 195 kts 51°
2026-04-25 20:55 -41.23683 174.85259 5890 ft 213 kts 50°
2026-04-25 20:55 -41.22825 174.86810 6659 ft 211 kts 49°
2026-04-25 20:56 -41.21915 174.88318 7315 ft 213 kts 47°
2026-04-25 20:56 -41.20937 174.89822 7949 ft 216 kts 45°
2026-04-25 20:56 -41.19939 174.91283 8627 ft 216 kts 45°
2026-04-25 20:56 -41.18914 174.92763 9167 ft 222 kts 45°
2026-04-25 20:57 -41.17847 174.94226 9788 ft 223 kts 43°
2026-04-25 20:57 -41.16568 174.95500 10104 ft 245 kts 20°
2026-04-25 20:57 -41.14872 174.95807 10754 ft 248 kts 355°
2026-04-25 20:57 -41.13110 174.95811 11226 ft 266 kts
2026-04-25 20:58 -41.11254 174.96222 11857 ft 274 kts
2026-04-25 20:58 -41.09369 174.96812 12525 ft 279 kts 11°
2026-04-25 20:58 -41.07475 174.97282 13159 ft 282 kts
2026-04-25 20:58 -41.05500 174.97464 13834 ft 285 kts 359°
2026-04-25 20:59 -41.03532 174.97583 14545 ft 285 kts 359°
2026-04-25 20:59 -41.01519 174.97693 15109 ft 291 kts 359°
2026-04-25 20:59 -40.99501 174.97804 15723 ft 294 kts 359°
2026-04-25 20:59 -40.97444 174.97922 16340 ft 296 kts 359°
2026-04-25 21:00 -40.95379 174.98041 16905 ft 299 kts 359°
2026-04-25 21:00 -40.94669 174.98082 17123 ft 299 kts 359°
2026-04-25 21:00 -40.89083 174.98410 18549 ft 307 kts 359°
2026-04-25 21:01 -40.86935 174.98515 19095 ft 308 kts 359°
2026-04-25 21:01 -40.84764 174.98619 19594 ft 311 kts 359°
2026-04-25 21:01 -40.82594 174.98721 20092 ft 313 kts 359°
2026-04-25 21:01 -40.80396 174.98827 20542 ft 316 kts 359°
2026-04-25 21:02 -40.78184 174.98933 21012 ft 318 kts 359°
2026-04-25 21:02 -40.75967 174.99040 21435 ft 322 kts 359°
2026-04-25 21:02 -40.73721 174.99150 21854 ft 325 kts 358°
2026-04-25 21:02 -40.71452 174.99260 22297 ft 326 kts 359°
2026-04-25 21:03 -40.69171 174.99370 22676 ft 330 kts 358°
2026-04-25 21:03 -40.66860 174.99483 23115 ft 331 kts 358°
2026-04-25 21:03 -40.64547 174.99596 23482 ft 334 kts 358°
2026-04-25 21:03 -40.62218 174.99692 23911 ft 334 kts 357°
2026-04-25 21:04 -40.59873 174.99683 24252 ft 337 kts 355°
2026-04-25 21:04 -40.57532 174.99644 24641 ft 338 kts 355°
2026-04-25 21:04 -40.55191 174.99605 25042 ft 339 kts 355°
2026-04-25 21:04 -40.52819 174.99564 25355 ft 342 kts 355°
2026-04-25 21:05 -40.50406 174.99525 25727 ft 344 kts 355°
2026-04-25 21:05 -40.48015 174.99490 26034 ft 347 kts 355°
2026-04-25 21:05 -40.45609 174.99455 26432 ft 346 kts 355°
2026-04-25 21:05 -40.43189 174.99422 26676 ft 351 kts 355°
2026-04-25 21:06 -40.40748 174.99390 27088 ft 350 kts 355°
2026-04-25 21:06 -40.38333 174.99358 27322 ft 354 kts 355°
2026-04-25 21:06 -40.35879 174.99327 27665 ft 354 kts 355°
2026-04-25 21:06 -40.34230 174.99306 27852 ft 355 kts 355°
2026-04-25 21:07 -40.30913 174.99263 28262 ft 357 kts 355°
2026-04-25 21:07 -40.28433 174.99232 28480 ft 361 kts 355°
2026-04-25 21:07 -40.25912 174.99200 28801 ft 361 kts 355°
2026-04-25 21:07 -40.23401 174.99170 29090 ft 361 kts 355°
2026-04-25 21:08 -40.20865 174.99138 29305 ft 364 kts 355°
2026-04-25 21:08 -40.18325 174.99106 29618 ft 364 kts 355°
2026-04-25 21:08 -40.15771 174.99075 29813 ft 367 kts 355°
2026-04-25 21:08 -40.13219 174.99043 30067 ft 368 kts 355°
2026-04-25 21:09 -40.08092 174.98981 30541 ft 371 kts 355°
2026-04-25 21:09 -40.05481 174.98949 30808 ft 371 kts 355°
2026-04-25 21:09 -40.02915 174.98917 31005 ft 374 kts 355°
2026-04-25 21:10 -40.00286 174.98885 31132 ft 378 kts 355°
2026-04-25 21:10 -39.97620 174.98850 31172 ft 384 kts 355°
2026-04-25 21:10 -39.92212 174.98781 31180 ft 396 kts 355°
2026-04-25 21:11 -39.86654 174.98712 31178 ft 405 kts 356°
2026-04-25 21:11 -39.80955 174.98644 31180 ft 411 kts 356°
2026-04-25 21:12 -39.75174 174.98575 31177 ft 416 kts 356°
2026-04-25 21:12 -39.70311 174.98517 31182 ft 419 kts 356°
2026-04-25 21:13 -39.63734 174.98438 31183 ft 422 kts 356°
2026-04-25 21:13 -39.62938 174.98428 31186 ft 422 kts 356°
2026-04-25 21:14 -39.57035 174.98357 31200 ft 424 kts 356°
2026-04-25 21:14 -39.51136 174.98286 31193 ft 426 kts 356°
2026-04-25 21:15 -39.45164 174.98215 31202 ft 426 kts 356°
2026-04-25 21:15 -39.39209 174.98143 31200 ft 427 kts 356°
2026-04-25 21:16 -39.33332 174.98073 31201 ft 420 kts 356°
2026-04-25 21:16 -39.27529 174.98004 31206 ft 413 kts 356°
2026-04-25 21:17 -39.21828 174.97937 31212 ft 409 kts 356°
2026-04-25 21:17 -39.16158 174.97868 31213 ft 405 kts 356°
2026-04-25 21:18 -39.10534 174.97801 31216 ft 403 kts 356°
2026-04-25 21:18 -39.04925 174.97733 31220 ft 401 kts 356°
2026-04-25 21:19 -38.99339 174.97667 31221 ft 400 kts 357°
2026-04-25 21:19 -38.93793 174.97600 31224 ft 399 kts 357°
2026-04-25 21:20 -38.89161 174.97545 31222 ft 399 kts 357°
2026-04-25 21:20 -38.82659 174.97467 31215 ft 398 kts 357°
2026-04-25 21:21 -38.77097 174.97400 30774 ft 409 kts 357°
2026-04-25 21:21 -38.74194 174.97363 30281 ft 420 kts 358°
2026-04-25 21:21 -38.71261 174.97328 29777 ft 424 kts 358°
2026-04-25 21:22 -38.68294 174.97295 29243 ft 421 kts 358°
2026-04-25 21:22 -38.65392 174.97261 28717 ft 418 kts 358°
2026-04-25 21:22 -38.62500 174.97227 28191 ft 415 kts 358°
2026-04-25 21:22 -38.59612 174.97194 27665 ft 413 kts 358°
2026-04-25 21:23 -38.56706 174.97160 27136 ft 410 kts 358°
2026-04-25 21:23 -38.53898 174.97127 26622 ft 408 kts 358°
2026-04-25 21:23 -38.51050 174.97093 26100 ft 406 kts 358°
2026-04-25 21:23 -38.48222 174.97061 25580 ft 404 kts 358°
2026-04-25 21:24 -38.45404 174.97028 25060 ft 402 kts 358°
2026-04-25 21:24 -38.42634 174.96995 24551 ft 400 kts 358°
2026-04-25 21:24 -38.39823 174.96962 24041 ft 398 kts 358°
2026-04-25 21:24 -38.37075 174.96930 23540 ft 396 kts 358°
2026-04-25 21:25 -38.34325 174.96898 23050 ft 387 kts 358°
2026-04-25 21:25 -38.31703 174.96869 22548 ft 372 kts 358°
2026-04-25 21:25 -38.29135 174.96838 22044 ft 360 kts 358°
2026-04-25 21:25 -38.26675 174.96811 21549 ft 350 kts 359°
2026-04-25 21:26 -38.24275 174.96782 21054 ft 342 kts 359°
2026-04-25 21:26 -38.21897 174.96755 20556 ft 336 kts 359°
2026-04-25 21:26 -38.19587 174.96727 20063 ft 330 kts 359°
2026-04-25 21:26 -38.17329 174.96701 19574 ft 326 kts 359°
2026-04-25 21:27 -38.15064 174.96674 19077 ft 321 kts 359°
2026-04-25 21:27 -38.12839 174.96648 18583 ft 318 kts 359°
2026-04-25 21:27 -38.10651 174.96622 18092 ft 314 kts 359°
2026-04-25 21:27 -38.08469 174.96596 17598 ft 311 kts 359°
2026-04-25 21:28 -38.06307 174.96571 17105 ft 309 kts 359°
2026-04-25 21:28 -38.04177 174.96545 16616 ft 307 kts 359°
2026-04-25 21:28 -38.02020 174.96521 16118 ft 305 kts 359°
2026-04-25 21:28 -37.99930 174.96497 15629 ft 303 kts 359°
2026-04-25 21:29 -37.97810 174.96472 15136 ft 302 kts 359°
2026-04-25 21:29 -37.95705 174.96448 14687 ft 300 kts 359°
2026-04-25 21:29 -37.93636 174.96423 14322 ft 299 kts 359°
2026-04-25 21:29 -37.91532 174.96399 13943 ft 298 kts 360°
2026-04-25 21:30 -37.89479 174.96374 13577 ft 297 kts 360°
2026-04-25 21:30 -37.87387 174.96350 13203 ft 296 kts 360°
2026-04-25 21:30 -37.85354 174.96327 12833 ft 295 kts 359°
2026-04-25 21:30 -37.83967 174.96310 12581 ft 294 kts 359°
2026-04-25 21:31 -37.81260 174.96280 12098 ft 292 kts 359°
2026-04-25 21:31 -37.79224 174.96257 11726 ft 291 kts 359°
2026-04-25 21:31 -37.77209 174.96233 11361 ft 290 kts 359°
2026-04-25 21:31 -37.75207 174.96210 10986 ft 288 kts 359°
2026-04-25 21:32 -37.73195 174.96187 10613 ft 287 kts 359°
2026-04-25 21:32 -37.71201 174.96164 10237 ft 286 kts 359°
2026-04-25 21:32 -37.69231 174.96141 9870 ft 285 kts 359°
2026-04-25 21:32 -37.67240 174.96118 9503 ft 284 kts 359°
2026-04-25 21:33 -37.65266 174.96097 9138 ft 283 kts 359°
2026-04-25 21:33 -37.63288 174.96074 8761 ft 281 kts 359°
2026-04-25 21:33 -37.61356 174.96053 8401 ft 276 kts 359°
2026-04-25 21:33 -37.59445 174.96030 8050 ft 272 kts 358°
2026-04-25 21:34 -37.57568 174.95946 7694 ft 269 kts 352°
2026-04-25 21:34 -37.55740 174.95554 7351 ft 266 kts 348°
2026-04-25 21:34 -37.53912 174.95091 7001 ft 263 kts 347°
2026-04-25 21:34 -37.52129 174.94621 6650 ft 262 kts 347°
2026-04-25 21:35 -37.50345 174.94151 6332 ft 259 kts 347°
2026-04-25 21:35 -37.48701 174.93720 6024 ft 258 kts 347°
2026-04-25 21:35 -37.46945 174.93260 5698 ft 257 kts 347°
2026-04-25 21:35 -37.45195 174.92806 5372 ft 256 kts 347°
2026-04-25 21:36 -37.43457 174.92355 5049 ft 250 kts 347°
2026-04-25 21:36 -37.41794 174.91925 4747 ft 244 kts 347°
2026-04-25 21:36 -37.40140 174.91498 4442 ft 240 kts 347°
2026-04-25 21:36 -37.38521 174.91081 4136 ft 236 kts 347°
2026-04-25 21:37 -37.36905 174.90666 3829 ft 233 kts 346°
2026-04-25 21:37 -37.35845 174.90393 3627 ft 232 kts 347°
2026-04-25 21:37 -37.33786 174.89859 3325 ft 225 kts 345°
2026-04-25 21:37 -37.32353 174.89111 3119 ft 218 kts 330°
2026-04-25 21:38 -37.31045 174.88190 2913 ft 216 kts 328°
2026-04-25 21:38 -37.29712 174.87192 2724 ft 230 kts 327°
2026-04-25 21:38 -37.28324 174.86145 2537 ft 234 kts 327°
2026-04-25 21:38 -37.26949 174.85110 2562 ft 223 kts 327°
2026-04-25 21:39 -37.25641 174.84142 2567 ft 215 kts 329°
2026-04-25 21:39 -37.24224 174.83691 2576 ft 202 kts 353°
2026-04-25 21:39 -37.22856 174.83594 2485 ft 190 kts 357°
2026-04-25 21:39 -37.21554 174.83563 2398 ft 184 kts 358°
2026-04-25 21:40 -37.20284 174.83546 2241 ft 182 kts 358°
2026-04-25 21:40 -37.19053 174.83531 2140 ft 169 kts 359°
2026-04-25 21:40 -37.17906 174.83519 1972 ft 153 kts 359°
2026-04-25 21:40 -37.16944 174.83510 1790 ft 130 kts 358°
2026-04-25 21:41 -37.16090 174.83501 1571 ft 117 kts 358°
2026-04-25 21:41 -37.15308 174.83491 1356 ft 108 kts 358°
2026-04-25 21:41 -37.14566 174.83510 1190 ft 107 kts
2026-04-25 21:41 -37.13868 174.83881 1088 ft 113 kts 42°
2026-04-25 21:42 -37.13285 174.84534 1076 ft 112 kts 42°
2026-04-25 21:42 -37.12697 174.85194 1100 ft 113 kts 41°
2026-04-25 21:42 -37.12095 174.85846 1112 ft 114 kts 41°
2026-04-25 21:42 -37.11497 174.86500 1105 ft 117 kts 41°
2026-04-25 21:43 -37.10864 174.87180 1112 ft 116 kts 41°
2026-04-25 21:43 -37.10283 174.87802 1061 ft 107 kts 41°
2026-04-25 21:43 -37.09729 174.88403 977 ft 106 kts 42°
2026-04-25 21:43 -37.09170 174.89023 886 ft 107 kts 43°
2026-04-25 21:44 -37.08616 174.89642 831 ft 104 kts 43°
2026-04-25 21:44 -37.08080 174.90271 754 ft 107 kts 45°
2026-04-25 21:44 -37.07006 174.91556 679 ft 107 kts 44°
2026-04-25 21:45 -37.06487 174.92226 617 ft 104 kts 49°
2026-04-25 21:45 -37.06165 174.92665 558 ft 104 kts 48°
2026-04-25 21:45 -37.05598 174.93694 759 ft 103 kts 64°
2026-04-25 21:45 -37.05264 174.94499 796 ft 104 kts 60°
2026-04-25 21:46 -37.04846 174.95221 714 ft 101 kts 48°
2026-04-25 21:46 -37.04366 174.95828 524 ft 96 kts 46°
2026-04-25 21:46 -37.03891 174.96422 272 ft 96 kts 47°
2026-04-25 21:46 -37.03444 174.96994 119 ft 86 kts 46°
2026-04-25 21:47 -37.03083 174.97452 109 ft 48 kts 46°
2026-04-25 21:47 -37.02992 174.97578 109 ft 11 kts 84°
2026-04-25 21:47 -37.03036 174.97646 109 ft 9 kts 135°
2026-04-25 21:47 -37.03080 174.97697 109 ft 8 kts 138°
2026-04-25 21:48 -37.03118 174.97745 109 ft 7 kts 138°
2026-04-25 21:48 -37.03128 174.97788 109 ft 5 kts 50°
2026-04-25 21:48 -37.03103 174.97819 109 ft 4 kts 45°
2026-04-25 21:48 -37.03099 174.97859 109 ft 7 kts 140°
2026-04-25 21:49 -37.03147 174.97890 109 ft 8 kts 216°
2026-04-25 21:49 -37.03178 174.97838 109 ft 7 kts 227°
2026-04-25 21:49 -37.03198 174.97810 109 ft 0 kts 227°